TimeCDT,TemperatureF,Dew PointF,Humidity,Sea Level PressureIn,VisibilityMPH,Wind Direction,Wind SpeedMPH,Gust SpeedMPH,PrecipitationIn,Events,Conditions,WindDirDegrees,DateUTC
12:52 AM,84.0,79.0,85,30.03,10.0,South,11.5,-,N/A,,Clear,180,2013-08-13 05:52:00
1:52 AM,84.0,79.0,85,30.01,10.0,South,12.7,-,N/A,,Clear,190,2013-08-13 06:52:00
2:52 AM,84.0,78.1,82,30.01,10.0,South,12.7,-,N/A,,Clear,190,2013-08-13 07:52:00
3:52 AM,84.0,78.1,82,30.01,10.0,SSW,11.5,-,N/A,,Partly Cloudy,200,2013-08-13 08:52:00
4:52 AM,82.9,78.1,85,30.01,10.0,SSW,12.7,-,N/A,,Partly Cloudy,210,2013-08-13 09:52:00
5:52 AM,82.9,78.1,85,30.01,10.0,SSW,10.4,-,N/A,,Scattered Clouds,210,2013-08-13 10:52:00
6:52 AM,82.9,77.0,82,30.01,10.0,SW,10.4,-,N/A,,Partly Cloudy,220,2013-08-13 11:52:00
7:52 AM,84.0,77.0,79,30.02,10.0,SW,8.1,-,N/A,,Clear,220,2013-08-13 12:52:00
8:52 AM,87.1,77.0,72,30.04,10.0,SW,12.7,-,N/A,,Partly Cloudy,220,2013-08-13 13:52:00
9:52 AM,89.1,78.1,70,30.05,10.0,SSW,11.5,-,N/A,,Scattered Clouds,210,2013-08-13 14:52:00
10:52 AM,90.0,79.0,70,30.06,10.0,South,12.7,-,N/A,,Scattered Clouds,190,2013-08-13 15:52:00
11:52 AM,91.9,79.0,66,30.06,10.0,South,12.7,-,N/A,,Scattered Clouds,190,2013-08-13 16:52:00
12:52 PM,91.0,78.1,66,30.04,10.0,South,13.8,-,N/A,,Clear,190,2013-08-13 17:52:00
1:52 PM,91.9,78.1,64,30.02,10.0,SSW,15.0,-,N/A,,Clear,200,2013-08-13 18:52:00
2:52 PM,91.9,78.1,64,29.99,10.0,South,15.0,-,N/A,,Clear,190,2013-08-13 19:52:00
3:52 PM,91.0,77.0,63,29.96,10.0,South,15.0,-,N/A,,Clear,190,2013-08-13 20:52:00
4:52 PM,91.0,78.1,66,29.96,10.0,South,17.3,-,N/A,,Clear,190,2013-08-13 21:52:00
5:52 PM,89.1,78.1,70,29.94,10.0,South,16.1,-,N/A,,Clear,190,2013-08-13 22:52:00
6:52 PM,87.1,78.1,74,29.94,10.0,South,15.0,-,N/A,,Clear,190,2013-08-13 23:52:00
7:52 PM,84.9,77.0,77,29.95,10.0,South,13.8,-,N/A,,Clear,190,2013-08-14 00:52:00
8:52 PM,84.9,77.0,77,29.96,10.0,SSW,11.5,-,N/A,,Unknown,200,2013-08-14 01:52:00
9:52 PM,84.9,77.0,77,29.96,10.0,SSW,11.5,-,N/A,,Clear,200,2013-08-14 02:52:00
10:52 PM,84.0,77.0,79,29.96,10.0,South,13.8,-,N/A,,Clear,190,2013-08-14 03:52:00
11:52 PM,84.0,78.1,82,29.95,10.0,South,15.0,-,N/A,,Clear,190,2013-08-14 04:52:00